Regional Weather Roundup
Issued by NWS

Home | Current Version | Previous Version | Text Only | Print | Product List | Glossary On
Versions: 1 2 3 4 5 6 7 8 9 10 11 12 13 14 15 16 17 18 19 20 21 22 23 24 25 26 27 28 29 30 31 32 33 34 35 36 37 38 39 40 41 42 43 44 45 46 47 48 49 50
000
ASUS43 KMKX 192311
RWRWI

WISCONSIN REGIONAL WEATHER ROUNDUP
NATIONAL WEATHER SERVICE MILWAUKEE/SULLIVAN WI
600 PM CDT SAT APR 19 2014

NOTE: "FAIR" INDICATES FEW OR NO CLOUDS BELOW 12,000 FEET WITH NO
SIGNIFICANT WEATHER AND/OR OBSTRUCTIONS TO VISIBILITY.

WIZ001-002-006>008-014>016-023>028-200000-
NORTHWEST WISCONSIN

CITY           SKY/WX    TMP DP  RH WIND       PRES   REMARKS
SUPERIOR ARPT  MOSUNNY   36  32  84 NE8       30.03F WCI  30
ASHLAND        CLOUDY    40  39  97 NE5       30.03S
HAYWARD        CLOUDY    49  41  74 S10       30.01F
SIREN          CLOUDY    55  40  56 S10       29.98S
RICE LAKE      DRIZZLE   51  45  79 SE12      30.04F
LADYSMITH      LGT RAIN  52  47  83 SE5       30.10S
EAU CLAIRE     LGT RAIN  63  41  44 S9        30.04R
MENOMONIE      CLOUDY    61  41  48 SE8       30.03S
NEW RICHMOND   LGT RAIN  57  45  64 E3        30.02S
OSCEOLA        CLOUDY    61  45  56 S13       30.01F
$$

WIZ003>005-009-010-017-018-200000-
NORTH CENTRAL WISCONSIN

CITY           SKY/WX    TMP DP  RH WIND       PRES   REMARKS
WOODRUFF       CLOUDY    52  36  54 S6        30.12R
RHINELANDER    CLOUDY    51  31  46 S7        30.13R
EAGLE RIVER    CLOUDY    51  29  43 S8        30.13R
LAND O LAKES   LGT RAIN  51  28  41 S6        30.13R
PHILLIPS       LGT RAIN  50  40  69 S5        30.10R
TOMAHAWK       CLOUDY    53  33  47 CALM      30.11R
MEDFORD        CLOUDY    57  40  52 S12       30.08S
MERRILL        PTSUNNY   58  36  43 CALM      30.10S
$$

WIZ029-030-035-036-043>047-200000-
CENTRAL WISCONSIN

CITY           SKY/WX    TMP DP  RH WIND       PRES   REMARKS
WAUSAU         MOSUNNY   61  35  37 S16       30.09F
MOSINEE        MOSUNNY   61  36  39 S18       30.13F
MARSHFIELD     PTSUNNY   63  39  41 S14       30.09F
STEVENS POINT  MOSUNNY   61  36  39 S12G22    30.13F
WAUPACA        MOSUNNY   63  36  36 S13       30.17F
WAUTOMA        MOSUNNY   64  36  35 SE12      30.16F
WISC RAPIDS    MOSUNNY   65  35  33 S13G20    30.13F
CAMP DOUGLAS   PTSUNNY   67  38  33 S13       30.11F
$$

WIZ011>013-019>022-031-037>040-048>050-200000-
NORTHEAST WISCONSIN

CITY           SKY/WX    TMP DP  RH WIND       PRES   REMARKS
ANTIGO         MOSUNNY   52  37  56 S21       30.14F
STURGEON BAY   MOSUNNY   46  32  57 S16       30.25F
GREEN BAY      MOSUNNY   52  36  54 SE15      30.22F
MANITOWOC      MOSUNNY   47  36  65 S16       30.25F
APPLETON       PTSUNNY   55  34  44 SE14      30.21F
CLINTONVILLE   MOSUNNY   55  34  44 S15       30.18F
OSHKOSH        MOSUNNY   59  35  40 S10       30.19F
$$

WIZ032>034-041-042-053>061-200000-
SOUTHWEST WISCONSIN

CITY           SKY/WX    TMP DP  RH WIND       PRES   REMARKS
LA CROSSE      PTSUNNY   70  37  29 S15       30.07F
SPARTA         PTSUNNY   69  35  28 S14G20    30.10F
VIROQUA        FAIR      66  37  34 S20G25    30.11F
BOSCOBEL       PTSUNNY   70  34  26 S9G18     30.12F
PRAIRIE DU CHI PTSUNNY   71  36  27 SE6G17    30.10S
PLATTEVILLE    FAIR      67  35  29 SE15      30.15S
$$

WIZ056-057-062-063-064-067-068-200000-
SOUTH CENTRAL WISCONSIN

CITY           SKY/WX    TMP DP  RH WIND       PRES   REMARKS
BARABOO/DELLS  MOSUNNY   65  35  32 S14       30.14F
LONE ROCK      MOSUNNY   68  37  32 S15G21    30.13F
WATERTOWN      MOSUNNY   62  35  37 SE13      30.19F
MADISON        PTSUNNY   66  35  31 S14       30.17F
MIDDLETON      FAIR      67  31  25 S17       30.17R
MONROE         PTSUNNY   67  34  29 S18G24    30.16F
JANESVILLE     SUNNY     68  28  22 S14G20    30.18F
$$

WIZ051-052-058>065-066-070>072-200000-
SOUTHEAST WISCONSIN

CITY           SKY/WX    TMP DP  RH WIND       PRES   REMARKS
MILWAUKEE      PTSUNNY   50  36  58 SE8       30.26S
WAUKESHA       MOSUNNY   57  32  38 SE9       30.24S
MILWAUKEE/TIMM SUNNY     54  34  47 E7        30.25F
RACINE         MOSUNNY   49  35  58 E8        30.26F
BURLINGTON     MOSUNNY   58  38  47 SW9       30.22S
KENOSHA        SUNNY     53  37  54 E8        30.24F
FOND DU LAC    MOSUNNY   58  36  43 S16       30.20F
SHEBOYGAN      PTSUNNY   50  36  58 S7        30.24F
WEST BEND      MOSUNNY   54  30  40 SE8       30.22F
JUNEAU         MOSUNNY   58  30  34 SE14      30.20F
$$

LSZ147-162-200000-
LAKE SUPERIOR

STATION/POSITION TIME  TEMP    WIND        PRES    WAVE
                       AIR SEA DIR/SP/G            HT/PER
                 (UTC) (F)     (DEG/KT/KT) (MB)    (FT/S)
DEVILS ISLAND    2300   40     110/  6/  7 1017.8S
PORT WING        2240   34      10/  9/ 11 1016.9F
SAXON HARBOR     2200             CALM     1017.6R
$$

LMZ867-665-643>646-200000-
LAKE MICHIGAN

STATION/POSITION TIME  TEMP    WIND        PRES    WAVE
                       AIR SEA DIR/SP/G            HT/PER
                 (UTC) (F)     (DEG/KT/KT) (MB)    (FT/S)
NORTHPORT PIER   2200   37     160/  4/  5 1025.4F
SISTER BAY       2209   49     180/ 11/ 13   N/A
KEWAUNEE LAKESHO 2200   40     180/ 12/ 15 1025.5F
SHEBOYGAN LAKESH 2300   39     160/  8/  9 1025.0F
PORT WASHINGTON  2200   41     170/  3/  4 1025.4F
MILWAUKEE LAKESH 2200   39      60/  5/  6   N/A
KENOSHA   LAKESH 2300   42      50/  2/  2   N/A
$$

TC  - TEMPERATURE IN CELSIUS
VSB - VISIBILITY IN STATUTE MILES
WCI - WIND CHILL INDEX
HX  - HEAT INDEX




USA.gov is the U.S. government's official web portal to all federal, state and local government web resources and services.